| time (UTC) | temp F | wind direction | speed MPH | gust MPH | rain 1hr in | rain 24hr in | rain mn in | humidity % | barometer mb |
| 20260510094549 | 41 | 326 | 9.0 | 16.0 | 0.00 | 0.04 | 0.04 | 78 | 1003.3 |
| 20260510093028 | 41 | 313 | 7.0 | 18.0 | 0.00 | 0.04 | 0.04 | 77 | 1003.0 |
| 20260510091525 | 42 | 297 | 8.0 | 13.0 | 0.00 | 0.04 | 0.04 | 75 | 1002.7 |
| 20260510090006 | 42 | 323 | 7.0 | 12.0 | 0.00 | 0.04 | 0.04 | 75 | 1002.6 |
| 20260510084503 | 43 | 309 | 9.0 | 15.0 | 0.00 | 0.04 | 0.04 | 73 | 1002.4 |
| 20260510083102 | 43 | 316 | 10.0 | 22.0 | 0.00 | 0.04 | 0.04 | 72 | 1002.2 |
| 20260510081555 | 44 | 302 | 11.0 | 22.0 | 0.00 | 0.04 | 0.04 | 70 | 1002.2 |
| 20260510080044 | 45 | 313 | 15.0 | 27.0 | 0.00 | 0.04 | 0.04 | 68 | 1002.1 |
| 20260510074540 | 46 | 338 | 17.0 | 28.0 | 0.00 | 0.04 | 0.04 | 64 | 1001.9 |
| 20260510073036 | 47 | 327 | 12.0 | 20.0 | 0.00 | 0.04 | 0.04 | 65 | 1001.7 |
| 20260510071533 | 47 | 329 | 11.0 | 15.0 | 0.00 | 0.04 | 0.04 | 63 | 1001.4 |
| 20260510070035 | 47 | 315 | 8.0 | 12.0 | 0.00 | 0.04 | 0.04 | 65 | 1001.5 |
| 20260510064529 | 48 | 282 | 7.0 | 12.0 | 0.00 | 0.04 | 0.04 | 67 | 1001.2 |
| 20260510063028 | 48 | 321 | 5.0 | 13.0 | 0.00 | 0.04 | 0.04 | 69 | 1000.9 |
| 20260510061516 | 48 | 275 | 8.0 | 15.0 | 0.00 | 0.04 | 0.04 | 69 | 1001.1 |
| 20260510060007 | 48 | 309 | 11.0 | 15.0 | 0.00 | 0.04 | 0.04 | 71 | 1000.9 |
| 20260510054559 | 48 | 313 | 9.0 | 14.0 | 0.00 | 0.04 | 0.04 | 72 | 1000.8 |
| 20260510053049 | 48 | 312 | 9.0 | 16.0 | 0.00 | 0.04 | 0.04 | 71 | 1000.7 |
| 20260510051534 | 48 | 298 | 7.0 | 14.0 | 0.00 | 0.04 | 0.04 | 71 | 1000.6 |
| 20260510050028 | 48 | 331 | 8.0 | 15.0 | 0.00 | 0.04 | 0.04 | 74 | 1000.3 |
| 20260510044509 | 48 | 319 | 9.0 | 12.0 | 0.00 | 0.04 | 0.04 | 76 | 1000.0 |
| 20260510043014 | 49 | 309 | 8.0 | 13.0 | 0.00 | 0.04 | 0.04 | 78 | 999.8 |
| 20260510041602 | 50 | 336 | 8.0 | 12.0 | 0.00 | 0.04 | 0.04 | 80 | 999.7 |
| 20260510040045 | 50 | 296 | 8.0 | 14.0 | 0.00 | 0.04 | 0.04 | 82 | 999.8 |
| 20260510034526 | 50 | 304 | 8.0 | 15.0 | 0.00 | 0.04 | 0.04 | 88 | 999.6 |
| 20260510033023 | 49 | 319 | 5.0 | 8.0 | 0.00 | 0.04 | 0.04 | 93 | 999.6 |
| 20260510031505 | 49 | 324 | 1.0 | 7.0 | 0.00 | 0.04 | 0.04 | 93 | 999.2 |
| 20260510030009 | 48 | 323 | 4.0 | 6.0 | 0.00 | 0.04 | 0.04 | 94 | 999.1 |
| 20260510024608 | 48 | 309 | 2.0 | 9.0 | 0.00 | 0.04 | 0.04 | 94 | 998.7 |
| 20260510023050 | 47 | 304 | 1.0 | 4.0 | 0.00 | 0.04 | 0.04 | 94 | 998.7 |
| 20260510021547 | 48 | 287 | 0.0 | 5.0 | 0.00 | 0.04 | 0.04 | 93 | 998.7 |
| 20260510020044 | 48 | 234 | 2.0 | 7.0 | 0.00 | 0.04 | 0.04 | 93 | 998.4 |
| 20260510014541 | 49 | 229 | 2.0 | 7.0 | 0.00 | 0.04 | 0.04 | 92 | 998.3 |
| 20260510013049 | 49 | 301 | 3.0 | 8.0 | 0.00 | 0.04 | 0.04 | 92 | 998.3 |
| 20260510011538 | 49 | 292 | 1.0 | 11.0 | 0.00 | 0.04 | 0.04 | 93 | 998.0 |
| 20260510010035 | 50 | 252 | 4.0 | 10.0 | 0.00 | 0.04 | 0.04 | 92 | 997.9 |
| 20260510004516 | 50 | 223 | 5.0 | 15.0 | 0.00 | 0.04 | 0.04 | 92 | 997.8 |
| 20260510003012 | 51 | 270 | 2.0 | 12.0 | 0.00 | 0.04 | 0.04 | 92 | 997.5 |
| 20260510001552 | 51 | 233 | 1.0 | 11.0 | 0.01 | 0.04 | 0.04 | 91 | 996.9 |
| 20260510000049 | 52 | 213 | 1.0 | 9.0 | 0.04 | 0.04 | 0.04 | 90 | 996.6 |
| 20260509234533 | 52 | 203 | 5.0 | 10.0 | 0.04 | 0.04 | 0.04 | 89 | 996.5 |
| 20260509233026 | 53 | 282 | 3.0 | 8.0 | 0.04 | 0.04 | 0.04 | 88 | 996.9 |
| 20260509231504 | 54 | 313 | 3.0 | 6.0 | 0.01 | 0.01 | 0.01 | 82 | 997.1 |
| 20260509230004 | 55 | 219 | 0.0 | 5.0 | 0.00 | 0.00 | 0.00 | 78 | 996.2 |
| 20260509224545 | 55 | 191 | 2.0 | 7.0 | 0.00 | 0.00 | 0.00 | 78 | 996.5 |
| 20260509223046 | 55 | 171 | 3.0 | 7.0 | 0.00 | 0.00 | 0.00 | 78 | 996.8 |
| 20260509221527 | 55 | 182 | 3.0 | 8.0 | 0.00 | 0.00 | 0.00 | 78 | 997.1 |
| 20260509220021 | 55 | 150 | 3.0 | 8.0 | 0.00 | 0.00 | 0.00 | 77 | 997.2 |
| 20260509214502 | 55 | 133 | 2.0 | 8.0 | 0.00 | 0.00 | 0.00 | 77 | 997.2 |
| 20260509213002 | 55 | 200 | 1.0 | 7.0 | 0.00 | 0.00 | 0.00 | 76 | 997.5 |
| 20260509211548 | 55 | 167 | 3.0 | 8.0 | 0.00 | 0.00 | 0.00 | 76 | 997.5 |
| 20260509210051 | 55 | 155 | 5.0 | 13.0 | 0.00 | 0.00 | 0.00 | 75 | 997.4 |
| 20260509204521 | 56 | 222 | 6.0 | 16.0 | 0.00 | 0.00 | 0.00 | 73 | 997.4 |
| 20260509203019 | 56 | 157 | 6.0 | 12.0 | 0.00 | 0.00 | 0.00 | 73 | 997.4 |
| 20260509201558 | 57 | 176 | 7.0 | 16.0 | 0.00 | 0.00 | 0.00 | 71 | 997.5 |
| 20260509200056 | 59 | 164 | 9.0 | 15.0 | 0.00 | 0.00 | 0.00 | 68 | 997.4 |
| 20260509194536 | 59 | 213 | 6.0 | 13.0 | 0.00 | 0.00 | 0.00 | 69 | 997.7 |
| 20260509193034 | 60 | 189 | 7.0 | 16.0 | 0.00 | 0.00 | 0.00 | 68 | 998.0 |
| 20260509191518 | 60 | 192 | 10.0 | 19.0 | 0.00 | 0.00 | 0.00 | 67 | 998.1 |
| 20260509190017 | 60 | 163 | 8.0 | 16.0 | 0.00 | 0.00 | 0.00 | 68 | 998.3 |
| 20260509184556 | 60 | 202 | 6.0 | 12.0 | 0.00 | 0.00 | 0.00 | 69 | 998.4 |
| 20260509183055 | 62 | 205 | 6.0 | 12.0 | 0.00 | 0.00 | 0.00 | 64 | 998.6 |
| 20260509181535 | 61 | 212 | 8.0 | 14.0 | 0.00 | 0.00 | 0.00 | 65 | 998.6 |
| 20260509180032 | 61 | 200 | 5.0 | 13.0 | 0.00 | 0.00 | 0.00 | 68 | 998.8 |
| 20260509174511 | 59 | 227 | 9.0 | 18.0 | 0.00 | 0.00 | 0.00 | 69 | 999.0 |
| 20260509173028 | 58 | 180 | 8.0 | 16.0 | 0.00 | 0.00 | 0.00 | 72 | 999.3 |
| 20260509171649 | 59 | 130 | 7.0 | 21.0 | 0.00 | 0.00 | 0.00 | 68 | 999.4 |
| 20260509170054 | 60 | 153 | 8.0 | 15.0 | 0.00 | 0.00 | 0.00 | 69 | 999.4 |
| 20260509164524 | 59 | 199 | 10.0 | 16.0 | 0.00 | 0.00 | 0.00 | 67 | 999.7 |
| 20260509163025 | 59 | 217 | 7.0 | 18.0 | 0.00 | 0.00 | 0.00 | 67 | 999.7 |
| 20260509161507 | 59 | 165 | 7.0 | 16.0 | 0.00 | 0.00 | 0.00 | 66 | 999.7 |
| 20260509160004 | 59 | 124 | 10.0 | 15.0 | 0.00 | 0.00 | 0.00 | 66 | 999.9 |
| 20260509154543 | 59 | 209 | 7.0 | 18.0 | 0.00 | 0.00 | 0.00 | 66 | 1000.2 |
| 20260509153042 | 58 | 234 | 9.0 | 15.0 | 0.00 | 0.00 | 0.00 | 66 | 1000.5 |
| 20260509151523 | 58 | 185 | 7.0 | 13.0 | 0.00 | 0.00 | 0.00 | 67 | 1000.6 |
| 20260509150022 | 58 | 151 | 7.0 | 15.0 | 0.00 | 0.00 | 0.00 | 69 | 1000.7 |
| 20260509144502 | 58 | 210 | 7.0 | 14.0 | 0.00 | 0.00 | 0.00 | 66 | 1000.6 |
| 20260509143000 | 57 | 195 | 7.0 | 16.0 | 0.00 | 0.00 | 0.00 | 69 | 1001.1 |
| 20260509141548 | 58 | 194 | 9.0 | 15.0 | 0.00 | 0.00 | 0.00 | 65 | 1000.9 |
| 20260509140040 | 56 | 175 | 8.0 | 12.0 | 0.00 | 0.00 | 0.00 | 68 | 1001.1 |
| 20260509134521 | 56 | 171 | 6.0 | 11.0 | 0.00 | 0.00 | 0.00 | 71 | 1001.3 |
| 20260509133018 | 55 | 217 | 4.0 | 11.0 | 0.00 | 0.00 | 0.00 | 72 | 1001.2 |
| 20260509131605 | 55 | 276 | 5.0 | 9.0 | 0.00 | 0.00 | 0.00 | 69 | 1001.3 |
| 20260509130127 | 55 | 238 | 4.0 | 9.0 | 0.00 | 0.00 | 0.00 | 67 | 1001.3 |
| 20260509124533 | 55 | 116 | 1.0 | 4.0 | 0.00 | 0.00 | 0.00 | 62 | 1001.3 |
| 20260509123037 | 53 | 153 | 1.0 | 4.0 | 0.00 | 0.00 | 0.00 | 65 | 1001.4 |
| 20260509121506 | 50 | 189 | 0.0 | 2.0 | 0.00 | 0.00 | 0.00 | 68 | 1001.6 |
| 20260509120012 | 47 | 186 | 1.0 | 5.0 | 0.00 | 0.00 | 0.00 | 66 | 1001.6 |
| 20260509114628 | 47 | 219 | 4.0 | 9.0 | 0.00 | 0.00 | 0.00 | 62 | 1001.6 |
| 20260509113052 | 46 | 210 | 5.0 | 9.0 | 0.00 | 0.00 | 0.00 | 62 | 1001.9 |
| 20260509111547 | 46 | 200 | 6.0 | 9.0 | 0.00 | 0.00 | 0.00 | 60 | 1002.0 |
| 20260509110029 | 46 | 225 | 6.0 | 10.0 | 0.00 | 0.00 | 0.00 | 59 | 1002.0 |
| 20260509104529 | 45 | 223 | 4.0 | 12.0 | 0.00 | 0.00 | 0.00 | 58 | 1001.8 |
| 20260509103011 | 45 | 207 | 4.0 | 8.0 | 0.00 | 0.00 | 0.00 | 57 | 1001.7 |
| 20260509101513 | 45 | 218 | 5.0 | 8.0 | 0.00 | 0.00 | 0.00 | 57 | 1001.7 |
| 20260509100053 | 45 | 223 | 4.0 | 7.0 | 0.00 | 0.00 | 0.00 | 57 | 1001.6 |